Время (UTC), дата Ветер
(°,м/с) 
Видим.   Явления Облачность Т
(°С)
Тd
(°С)
f(%) Тe
(°С)
Pmin
(гПа)
dP
(гПа)
Po
(мм)
O2
(г/м3)
Тmin Tmax R s Состояние
почвы
00 01.09.16 290 (З) 5{12}  10 км    8/6 200 м средняя 
[St|Ac und]
+17.1 +15 87 +27  1011.5  0.8  720  270           
03 01.09.16 300 (СЗ) 6-11{11}  4000 м  дымка  10/10 100 м 
[St]
+15.3 +13.6 90 +22  1013.2  1.3  721  272  +15.3        сухая 
06 01.09.16 290 (З) 6{11}  20000 м    10/6 300 м средняя 
[Sc|Ac und]
+15.9 +13.3 85 +22  1014.2  722  272  +15.3         
09 01.09.16 300 (СЗ) 5{10}  20000 м    9/6 600 м средняя 
[Sc|Ac trans]
+16.5 +12.4 77 +21  1015.6  1.4  723  272           
12 01.09.16 300 (СЗ) 20000 м    8/4 600 м средняя 
[Sc|Ac trans]
+19.6 +10.8 57 +23  1014.9  0.1  722  270           
15 01.09.16 340 (С) 20000 м    4/4 1000 м 
[Sc]
+19 +10.6 58 +22  1015.7  0.6  723  270    +21.9       
18 01.09.16 330 (СЗ) 20000 м    3/0 средняя 
[Ac trans]
+15.1 +8.9 66 +15  1018.2  1.6  724  275           
21 01.09.16 310 (СЗ) 20000 м    ясно 
+13.6 +8.3 70 +14  1018.3  -0.2  724  276           
00 02.09.16 340 (С) 20000 м    3/0 средняя 
[Ac trans]
+12.2 +6.7 69 +13  1017.7  -0.8  723  278           
03 02.09.16 330 (СЗ) 20000 м    3/0 средняя 
[Ac trans]
+10.8 +6.1 73 +12  1017.8  -0.2  723  279  +8.6        сухая 
06 02.09.16 340 (С) 20000 м    ясно 
+18.1 +4.9 42 +19  1016.9  0.4  724  273           
09 02.09.16 340 (С) 20000 м    ясно 
+20.7 +5.8 38 +21  1015.5  -0.9  723  270           
12 02.09.16 320 (СЗ) 20000 м    ясно 
+21.5 +3.5 31 +22  1014.4  -0.9  722  269           
15 02.09.16 310 (СЗ) 20000 м    ясно 
+19.9 +3.3 33 +21  1014.6  0.1  722  271    +21.9       
18 02.09.16 320 (СЗ) 20000 м    ясно 
+16 +4.7 47 +17  1016.1  0.8  723  274           
21 02.09.16 350 (С) 20000 м    ясно 
+14.9 +4.8 51 +16  1016.1  -0.2  723  275           
00 03.09.16 тихо ()   20000 м    ясно 
+11.8 +5.1 63 +12  1016.3  -0.2  722  278           
06 03.09.16 110 (В) 20000 м    ясно 
+20.4 +5 36 +20  1014.6  0.1  722  270           
09 03.09.16 070 (В) 20000 м    ясно 
+23.6 +4.4 29 +24  1013.2  -0.8  722  267           
12 03.09.16 080 (В) 20000 м    3/0 верхняя 
[Ci fib]
+25.8 +1.8 21 +26  1011.8  -1  721  265           
18 03.09.16 060 (СВ) 20000 м    3/0 средняя 
[Ac trans]
+18.7 +3.5 36 +20  1013.7  0.4  721  271           
21 03.09.16 060 (СВ) 20000 м    ясно 
+16.5 +3.8 43 +17  1013.8  -0.3  721  273           
00 04.09.16 060 (СВ) 20000 м    3/0 средняя 
[Ac trans]
+15 +4.1 48 +16  1013.7  -0.3  721  275           
06 04.09.16 110 (В) 20000 м    8/0 средняя, верхняя 
[Ac trans|Ci]
+19.2 +6.6 44 +20  1013.7  0.6  722  270           
09 04.09.16 070 (В) 5{10}  20000 м    10/0 верхняя 
[Cs]
+24.6 +4.1 26 +25  1013.1  0.4  722  266           
12 04.09.16 100 (В) 20000 м    10/0 верхняя 
[Cs]
+24.4 +3.4 26 +24  1013.2  722  266           
18 04.09.16 230 (ЮЗ) 20000 м    3/0 средняя 
[Ac trans]
+16.3 +8.7 61 +17  1016.2  0.9  723  273           
21 04.09.16 230 (ЮЗ) 20000 м    ясно 
+14.7 +7 60 +15  1016.5  723  275           
00 05.09.16 330 (СЗ) 20000 м    ясно 
+16.4 +9.5 64 +18  1016.2  0.1  723  273           
03 05.09.16 200 (Ю) 20000 м    3/0 средняя 
[Ac trans]
+13.3 +9.8 79 +17  1017.5  0.7  723  276  +12.4        сухая 
06 05.09.16 150 (ЮВ) 20000 м    3/0 верхняя 
[Ci fib]
+22.8 +11 47 +26  1016.3  0.5  724  267           
09 05.09.16 130 (ЮВ) 20000 м    ясно 
+26.6 +4.1 24 +27  1015  -0.7  723  265           
12 05.09.16 100 (В) 4{11}  20000 м    3/0 средняя 
[Ac trans]
+27.2 +4.2 23 +27  1013.8  -1.1  723  264           
15 05.09.16 120 (ЮВ) 20000 м    3/0 верхняя 
[Ci fib]
+24.4 +4.8 28 +24  1013.9  -1.1  722  266    +27.5       
18 05.09.16 150 (ЮВ) 20000 м    ясно 
+19.7 +6.2 41 +21  1015  0.3  722  270           
21 05.09.16 170 (Ю) 20000 м    ясно 
+17.3 +9.3 59 +19  1015.3  0.1  722  272           
00 06.09.16 190 (Ю) 20000 м    3/0 средняя 
[Ac trans]
+15.3 +9.8 70 +18  1015.9  0.2  723  274           
03 06.09.16 110 (В) 20000 м    4/0 средняя 
[Ac trans]
+14.9 +9.6 71 +17  1016.8  0.8  723  275  +13.4        сухая 
06 06.09.16 120 (ЮВ) 20000 м    6/0 средняя 
[Ac trans]
+22.9 +8.7 40 +23  1016.4  724  268           
09 06.09.16 080 (В) 20000 м    8/0 средняя, верхняя 
[Ac trans|Ci fib]
+26.5 +5.3 26 +27  1015.8  724  265           
12 06.09.16 020 (С) 20000 м    8/3 600 м верхняя 
[Cu hum|Ci fib]
+26.9 +5.4 25 +27  1015.1  -0.6  723  264           
15 06.09.16 040 (СВ) 20000 м    6/3 1000 м верхняя 
[Cu hum|Ci fib]
+25.2 +5.2 28 +25  1016.3  0.8  724  266    +27.8       
18 06.09.16 200 (Ю) 20000 м    4/0 средняя 
[Ac trans]
+18.8 +6.9 46 +19  1018.5  1.1  725  272           
21 06.09.16 220 (ЮЗ) 20000 м    3/0 средняя 
[Ac trans]
+17.1 +7.3 52 +17  1018.5  -0.3  725  274           
00 07.09.16 260 (З) 20000 м    3/0 средняя 
[Ac trans]
+17.4 +8.1 54 +18  1018.3  0.1  725  273           
03 07.09.16 280 (З) 20000 м    3/0 средняя 
[Ac trans]
+19.7 +9.4 51 +21  1017.8  725  271  +15.6        сухая 
06 07.09.16 310 (СЗ) 20000 м    ясно 
+24.8 +8.3 35 +25  1017.2  0.3  725  266           
09 07.09.16 250 (З) 20000 м    4/4 600 м 
[Cu hum]
+28.2 +3.6 21 +28  1015.9  -0.7  724  264           
12 07.09.16 320 (СЗ) 20000 м    8/4 600 м верхняя 
[Cu hum|Ci fib]
+27.9 +5.1 23 +28  1015.4  -0.6  724  264           
15 07.09.16 270 (З) 20000 м    8/0 верхняя 
[Ci fib]
+25.4 +6.2 29 +25  1015.4  -0.4  723  266    +28.3       
18 07.09.16 330 (СЗ) 20000 м    4/0 верхняя 
[Ci fib]
+22.1 +8.2 41 +22  1016.6  0.7  724  268           
21 07.09.16 040 (СВ) 20000 м    ясно 
+17.8 +9.8 59 +21  1018  0.6  724  272           
00 08.09.16 020 (С) 20000 м    ясно 
+16.6 +8.7 60 +18  1018.1  -0.2  724  274           
03 08.09.16 070 (В) 20000 м    3/0 верхняя 
[Ci fib]
+15.3 +7.7 60 +17  1018.1  -0.2  724  275  +13.1        сухая 
06 08.09.16 140 (ЮВ) 20000 м    ясно 
+22.3 +7.2 38 +22  1016.6  -0.2  724  268           
09 08.09.16 270 (З) 20000 м    1/0 верхняя 
[Ci fib]
+26.3 +7.6 30 +26  1014.4  -1.4  723  264           
12 08.09.16 270 (З) 20000 м    1/0 верхняя 
[Ci fib]
+27.1 +7.6 29 +27  1012.8  -1.4  722  263           
15 08.09.16 300 (СЗ) 3{10}  20000 м    1/0 верхняя 
[Ci fib]
+24 +4.9 29 +24  1012.8  -0.6  721  266    +27.2       
18 08.09.16 280 (З) 20000 м    ясно 
+19.9 +2.5 31 +21  1013.5  721  271           
21 08.09.16 290 (З) 20000 м    ясно 
+18.5 +4 38 +19  1012.9  -0.8  721  271           
00 09.09.16 260 (З) 20000 м    ясно 
+14.5 +5.2 54 +15  1012.9  -0.7  720  275           
03 09.09.16 250 (З) 20000 м    ясно 
+15 +6.9 58 +15  1012.8  720  274  +14.2        сухая 
06 09.09.16 250 (З) 20000 м    3/0 верхняя 
[Ci fib]
+21.2 +6.7 39 +21  1012.1  0.3  721  268           
09 09.09.16 280 (З) 6-10{10}  20000 м    4/0 верхняя 
[Ci fib]
+25.3 +3.6 25 +25  1010.9  -0.5  720  265           
12 09.09.16 290 (З) 8-12{14}  20000 м    6/0 верхняя 
[Ci]
+26.2 +3.3 23 +26  1010.4  -0.3  720  264           
15 09.09.16 290 (З) 4{12}  20000 м    6/0 верхняя 
[Ci fib]
+24.2 +5.8 31 +24  1011.4  0.6  720  266    +27       
18 09.09.16 010 (С) 4{10}  20000 м    3/3 600 м 
[Sc]
+19.7 +8.5 48 +20  1014.4  2.2  722  270           
21 09.09.16 010 (С) 20000 м    3/0 средняя 
[Ac trans]
+17.1 +8.8 58 +18  1016.3  1.3  723  273           
00 10.09.16 тихо ()   20000 м    ясно 
+15.6 +9.2 66 +16  1017.3  0.8  724  274           
03 10.09.16 тихо ()   20000 м    6/0 средняя 
[Ac trans]
+15.6 +8.9 64 +16  1018.3  0.9  724  274  +14.2        сухая 
06 10.09.16 010 (С) 20000 м    3/3 600 м 
[Cu hum]
+21.3 +4.1 32 +21  1018.1  0.7  725  270  +13.9         
09 10.09.16 320 (СЗ) 20000 м    3/3 600 м 
[Cu hum]
+23.7 +2.6 25 +24  1017.4  -0.3  725  268           
12 10.09.16 340 (С) 20000 м    ясно 
+24.1 +2.3 24 +24  1016.7  -0.6  724  268           
15 10.09.16 010 (С) 20000 м    ясно 
+21.2 +1.7 27 +21  1017.2  724  270    +24.2       
18 10.09.16 050 (СВ) 20000 м    ясно 
+16.3 +2.3 39 +17  1019  0.9  725  275           
21 10.09.16 080 (В) 20000 м    ясно 
+13.5 +1.5 44 +14  1019.5  0.1  725  278           
00 11.09.16 090 (В) 20000 м    ясно 
+12.4 +1.4 47 +14  1019  -0.7  724  279           
03 11.09.16 110 (В) 20000 м    ясно 
+11.1 +1.9 53 +12  1018.9  -0.3  724  280  +10.8        сухая 
06 11.09.16 060 (СВ) 20000 м    ясно 
+19.1 +2.5 33 +20  1017.8  0.4  724  272           
09 11.09.16 340 (С) 20000 м    ясно 
+22.9 +1.5 24 +23  1016.8  -0.3  724  269           
12 11.09.16 030 (СВ) 20000 м    ясно 
+24.1 +0.5 21 +24  1015.7  -0.9  723  268           
15 11.09.16 020 (С) 20000 м    ясно 
+21.3 +0.6 25 +21  1016.7  0.5  724  270    +24.3       
18 11.09.16 030 (СВ) 20000 м    1/0 средняя 
[Ac trans]
+16.2 +1.6 37 +17  1018.5  0.8  724  275           
21 11.09.16 060 (СВ) 20000 м    3/0 средняя 
[Ac trans]
+15 +2.4 43 +16  1018.5  -0.2  724  276           
00 12.09.16 070 (В) 20000 м    3/0 средняя 
[Ac trans]
+12.6 +3.3 53 +13  1019  -0.2  724  278           
03 12.09.16 100 (В) 20000 м    1/0 средняя 
[Ac trans]
+11.1 +3.1 58 +12  1019.5  0.2  725  280  +10.1        сухая 
06 12.09.16 100 (В) 20000 м    ясно 
+19.4 +2.7 33 +20  1019  0.9  725  272           
09 12.09.16 100 (В) 20000 м    ясно 
+23.1 +2.8 26 +23  1018  -0.3  725  269           
12 12.09.16 040 (СВ) 20000 м    ясно 
+25.2 +1.8 22 +25  1016.7  -0.9  724  267           
15 12.09.16 050 (СВ) 20000 м    ясно 
+22.2 +1.7 26 +22  1017.3  0.1  724  270    +25.2       
18 12.09.16 050 (СВ) 20000 м    ясно 
+17.3 +2.2 36 +18  1018.6  0.4  725  274           
21 12.09.16 100 (В) 20000 м    ясно 
+14.3 +2.6 45 +14  1018.4  -0.8  724  277           
00 13.09.16 080 (В) 20000 м    ясно 
+12.8 +2.5 49 +13  1017.5  -1.1  723  278           
03 13.09.16 100 (В) 20000 м    ясно 
+11.6 +2.3 53 +13  1017  -0.7  723  279  +11.5        сухая 
06 13.09.16 110 (В) 20000 м    ясно 
+20.9 +3.3 31 +21  1014.9  -0.3  723  270           
09 13.09.16 110 (В) 20000 м    ясно 
+25 +4.5 27 +25  1012.7  -1.4  722  266           
12 13.09.16 350 (С) 20000 м    ясно 
+26.9 +4 23 +27  1010.4  -1.8  720  263           
15 13.09.16 280 (З) 20000 м    ясно 
+24.1 +5.4 30 +24  1009.7  -1.1  719  265    +27.5       
18 13.09.16 350 (С) 20000 м    ясно 
+19.4 +2.8 33 +20  1010.5  0.1  719  270           
21 13.09.16 330 (СЗ) 20000 м    ясно 
+18.5 +2.1 33 +19  1009.8  -0.8  719  271           
00 14.09.16 290 (З) 20000 м    ясно 
+17.9 +2.1 35 +19  1008.9  -0.9  718  271           
03 14.09.16 280 (З) 20000 м    3/0 средняя 
[Ac trans]
+17.8 +3.2 38 +18  1008.8  718  271  +15        сухая 
06 14.09.16 250 (З) 20000 м    3/0 средняя 
[Ac trans]
+22.2 +5.1 33 +22  1008.5  0.4  718  267           
09 14.09.16 270 (З) 8-13{13}  20000 м    3/0 средняя 
[Ac trans]
+25.8 +4.7 26 +26  1006.9  -0.9  717  263           
12 14.09.16 280 (З) 5{13}  20000 м    3/3 600 м средняя 
[Cu hum|Ac trans]
+26.7 +3.7 23 +27  1006  -0.9  717  263           
15 14.09.16 270 (З) 4{10}  20000 м    4/0 верхняя 
[Ci fib]
+23.6 +5 30 +24  1006.7  0.2  717  265    +27.2       
18 14.09.16 330 (СЗ) 20000 м    8/3 600 м кучево-дожд., верхняя 
[Cb calv|Ci fib]
+19.7 +8.9 50 +22  1008.3  0.8  718  268           
21 14.09.16 250 (З) 20000 м    8/3 1000 м кучево-дожд., средняя 
[Cb calv|Ac trans]
+18.1 +9.7 58 +21  1008.1  -0.5  717  269           
00 15.09.16 250 (З) 20000 м    6/3 1000 м кучево-дожд., средняя 
[Cb calv|Ac trans]
+16.6 +11.9 74 +21  1007.7  -0.5  717  270           
03 15.09.16 290 (З) 4{11}  20000 м    4/3 1000 м кучево-дожд., средняя 
[Cb calv|Ac trans]
+13.6 +8.5 71 +13  1009.7  1.3  718  274  +13.6        сухая 
06 15.09.16 300 (СЗ) 20000 м    5/0 средняя, верхняя 
[Ac trans|Ci fib]
+17 +2.7 38 +17  1010.9  1.6  719  272  +12.9         
09 15.09.16 300 (СЗ) 20000 м    1/0 верхняя 
[Ci fib]
+19.5 +3.1 34 +20  1011.1  0.7  720  270           
12 15.09.16 290 (З) 7-11{12}  20000 м    1/0 верхняя 
[Ci fib]
+19.9 +2.6 32 +20  1011.2  0.2  720  270           
15 15.09.16 310 (СЗ) 5-10{12}  20000 м    5/0 средняя 
[Ac trans]
+17.3 +0.4 32 +17  1013.1  1.3  721  273    +20.4       
18 15.09.16 320 (СЗ) 2{10}  20000 м    3/0 средняя 
[Ac trans]
+12.9 +1.8 47 +13  1015.7  1.7  722  277           
21 15.09.16 300 (СЗ) 20000 м    3/0 средняя 
[Ac trans]
+10.9 +1.7 53 +11  1016.8  0.7  723  280           
00 16.09.16 310 (СЗ) 20000 м    5/0 средняя, верхняя 
[Ac trans|Ci fib]
+9.4 +2.2 61 +9  1017.3  0.2  723  281           
03 16.09.16 240 (ЮЗ) 20000 м    3/0 средняя 
[Ac trans]
+7.8 +2.7 70 +8  1018.1  0.5  723  283  +6.6        сухая 
06 16.09.16 030 (СВ) 20000 м    ясно 
+15.2 +0.5 37 +17  1017.3  0.5  723  276  +6         
09 16.09.16 100 (В) 20000 м    3/0 средняя, верхняя 
[Ac As|Ci fib]
+17.9 +0 30 +19  1015.9  -0.8  723  273           
12 16.09.16 300 (СЗ) 20000 м    4/0 средняя, верхняя 
[Ac trans|Ci fib]
+19.7 +0.3 27 +21  1014.5  -1.1  722  271           
15 16.09.16 280 (З) 20000 м    3/0 средняя 
[Ac trans]
+16.6 +1.4 36 +17  1014.9  0.1  722  274    +19.8       
18 16.09.16 280 (З) 20000 м    10/0 средняя 
[Ac und]
+14.8 +2.9 45 +15  1015.7  0.5  722  276           
21 16.09.16 230 (ЮЗ) 20000 м    3/0 средняя 
[Ac trans]
+11.5 +2.5 54 +11  1015.6  -0.7  722  279           
00 17.09.16 250 (З) 20000 м    9/0 средняя 
[Ac trans]
+13.6 +3.3 50 +13  1014.9  -0.2  722  276           
03 17.09.16 230 (ЮЗ) 20000 м    1/0 средняя 
[Ac trans]
+10.4 +4.7 68 +9  1014.9  -0.6  721  279  +9.2        сухая 
06 17.09.16 250 (З) 7-11{11}  20000 м    ясно 
+17.5 +4.8 43 +17  1013.6  721  272           
09 17.09.16 280 (З) 9-15{15}  20000 м    3/3 600 м 
[Cu hum]
+22 +4.1 31 +22  1011.8  -1  720  268           
12 17.09.16 280 (З) 10-15{16}  20000 м    3/3 600 м 
[Cu hum]
+22.5 +4.2 30 +23  1010.7  -1  720  267           
15 17.09.16 270 (З) 7-10{17}  20000 м    3/0 средняя 
[Ac trans]
+19.1 +7.9 48 +19  1011.9  0.7  720  270    +22.9       
18 17.09.16 270 (З) 7{12}  20000 м    3/0 средняя 
[Ac trans]
+16.5 +6.9 53 +16  1013.2  0.7  721  273           
21 17.09.16 270 (З) 8-11{15}  20000 м  слаб. ливневой дождь  10/5 1000 м кучево-дожд., средняя 
[Cb cap|Ac und]
+14.9 +10.2 73 +16  1012.5  -0.8  720  273           
00 18.09.16 270 (З) 8-12{13}  20000 м  {ливн. осадки}  8/8 600 м 
[Sc]
+15.7 +6.6 55 +15  1012.6  -0.1  720  273           
03 18.09.16 280 (З) 6{13}  20000 м    6/3 600 м средняя 
[Sc|Ac trans]
+14.5 +11.3 81 +18  1013.2  0.4  721  274  +14.5        влажная 
06 18.09.16 270 (З) 8-11{11}  20000 м    6/3 600 м кучево-дожд., средняя 
[Cb calv|Ac trans]
+18.1 +10.9 63 +21  1013.1  0.5  721  270           
09 18.09.16 270 (З) 7-11{13}  20000 м    8/4 600 м кучево-дожд., средняя 
[Cb calv|Ac trans]
+21.5 +10.4 49 +24  1012.1  -0.4  721  267           
12 18.09.16 320 (СЗ) 4{11}  20000 м    8/5 1000 м кучево-дожд., средняя 
[Cb calv|Ac trans]
+19.3 +11.5 61 +24  1012.9  0.5  721  269           
15 18.09.16 340 (С) 20000 м    8/3 1000 м средняя 
[Sc diur, vesp|Ac trans]
+16.4 +9 62 +18  1013.9  0.4  721  273    +21.8       
18 18.09.16 080 (В) 20000 м    8/0 средняя 
[Ac trans]
+13.9 +8.2 68 +14  1015.2  0.7  722  275           
21 18.09.16 060 (СВ) 20000 м  слаб. ливневой дождь  10/6 600 м кучево-дожд., средняя 
[Cb cap|Ac und]
+13 +7.3 68 +13  1014.9  -0.4  722  276           
00 19.09.16 100 (В) 20000 м  слаб. ливневой дождь  10/8 600 м кучево-дожд., средняя 
[Cb cap|Ac und]
+10.5 +7.7 83 +10  1014.1  -1.2  721  278           
03 19.09.16 110 (В) 2000 м  слаб. ливневой дождь  10/6 300 м кучево-дожд., средняя 
[Cb cap|Ac und]
+9.8 +9 95 +10  1013.6  -0.6  720  278  +9.7      влажная 
06 19.09.16 070 (В) 0500 м  туман{ливн. осадки}  ?/?  
+10.1 +9.3 95 +11  1014.3  0.7  721  278  +9.5         
09 19.09.16 120 (ЮВ) 10 км  {ливн. осадки, туман}  10/8 100 м кучево-дожд., средняя 
[Cb calv|Ac und]
+12.1 +11.4 95 +16  1014.2  0.3  721  276           
12 19.09.16 070 (В) 10 км  {ливн. осадки, туман}  9/6 300 м средняя 
[St|Ac trans]
+14.4 +12.7 90 +22  1013.5  -0.2  721  273           
15 19.09.16 090 (В) 10 км    10/5 200 м средняя 
[St|Ac und]
+14.1 +12.8 92 +21  1013.5  0.1  721  274    +15.5     
18 19.09.16 130 (ЮВ) 0400 м  туман  ?/?  
+13.1 +12.4 96 +19  1012.9  -0.7  720  274           
21 19.09.16 160 (Ю) 0300 м  туман  ?/?  
+11.8 +11.1 95 +16  1012.1  -1  719  276           
00 20.09.16 140 (ЮВ) 4000 м  дымка{туман}  3/0 средняя 
[Ac trans]
+10.1 +9.5 96 +11  1011.2  -1.3  719  277           
03 20.09.16 140 (ЮВ) 20000 м    5/0 верхняя 
[Ci fib]
+9.8 +9.1 95 +10  1009.8  -1.4  717  277  +9.8    0.3    влажная 
06 20.09.16 120 (ЮВ) 20000 м    6/0 средняя, верхняя 
[Ac trans|Cc]
+16.5 +11.7 73 +20  1007.4  -1  717  270           
09 20.09.16 140 (ЮВ) 7{10}  20000 м    8/3 1000 м средняя, верхняя 
[Sc|Ac As|Ci sp]
+23.2 +11.6 48 +28  1004.1  -1.9  715  263           
12 20.09.16 130 (ЮВ) 6{10}  20000 м    9/3 1000 м кучево-дожд., средняя 
[Cb calv|Ac trans]
+25.5 +10 38 +28  1002.9  -0.8  715  262           
15 20.09.16 080 (В) 3{10}  20000 м  {ливн. осадки}  9/3 1000 м средняя, верхняя 
[Sc|Ac As|Ci fib]
+22.3 +11.9 52 +27  1003.2  -0.2  715  264    +26.7       
18 20.09.16 тихо ()   20000 м  {ливн. осадки}  8/3 1000 м средняя 
[Sc|Ac trans]
+18.7 +12 65 +24  1003.7  0.1  714  267           
21 20.09.16 280 (З) 6-10{10}  20000 м    10/3 1000 м кучево-дожд., средняя 
[Cb cap|Ac und]
+20.8 +12.2 58 +26  1004  0.7  715  265           
00 21.09.16 280 (З) 3{14}  20000 м  слаб. ливневой дождь  10/4 1000 м кучево-дожд., средняя 
[Cb cap|Ac und]
+18.3 +13 71 +26  1003.1  -1.3  714  267           
03 21.09.16 300 (СЗ) 20000 м  слаб. ливневой дождь  10/6 300 м кучево-дожд., средняя 
[Cb cap|Ac und]
+16.7 +13.1 79 +24  1003.5  0.2  714  268  +16.6    0.3    влажная 
06 21.09.16 170 (Ю) 20000 м  {ливн. осадки}  8/3 600 м кучево-дожд., средняя 
[Cb calv|Ac trans]
+17.8 +14.6 82 +28  1003.7  0.3  714  267  +15.8         
09 21.09.16 200 (Ю) 2{15}  20000 м  слаб. ливневой дождь  10/5 300 м кучево-дожд., средняя 
[Cb cap|Ac und]
+15.2 +13.9 92 +24  1005.6  1.4  715  270           
12 21.09.16 250 (З) 20000 м  {ливн. осадки}  9/4 300 м кучево-дожд., средняя 
[Cb calv|Ac trans]
+17.5 +13.5 77 +24  1006.1  0.8  716  268           
15 21.09.16 280 (З) 8-13{14}  20000 м    8/4 600 м кучево-дожд., средняя 
[Cb calv|Ac trans]
+13.8 +10.5 80 +16  1009  2.1  718  273    +19.5  10     
18 21.09.16 260 (З) 5{13}  20000 м    4/0 средняя 
[Ac trans]
+11 +8.7 86 +10  1012.4  2.6  719  277           
21 21.09.16 250 (З) 20000 м    3/0 средняя 
[Ac trans]
+9.7 +8 89 +9  1013.7  720  279           
00 22.09.16 160 (Ю) 20000 м    8/8 300 м 
[Sc]
+10.7 +8.9 89 +13  1013.8  0.3  720  278           
03 22.09.16 230 (ЮЗ) 20000 м    10/5 600 м средняя 
[Sc|Ac und]
+11.3 +9.2 87 +13  1014.5  0.8  721  277  +9.2        влажная 
06 22.09.16 270 (З) 20000 м  слаб. ливневой дождь  10/6 600 м кучево-дожд., средняя 
[Cb cap|Ac und]
+11.8 +9.5 86 +13  1015.7  1.2  722  277           
09 22.09.16 280 (З) 20000 м  {ливн. осадки}  10/6 600 м кучево-дожд., средняя 
[Cb calv|Ac und]
+13.5 +6.7 63 +13  1016.3  0.9  723  276           
12 22.09.16 260 (З) 20000 м  {ливн. осадки}  10/5 600 м кучево-дожд., средняя 
[Cb calv|Ac und]
+11.9 +7.4 74 +12  1017.6  0.9  723  278           
15 22.09.16 250 (З) 20000 м  слаб. ливневой дождь  10/6 600 м кучево-дожд., средняя 
[Cb cap|Ac und]
+9.1 +7.6 90 +9  1019.3  1.2  724  281    +14  0.8     
18 22.09.16 210 (ЮЗ) 20000 м  в посл. час ливневой дождь  10/5 600 м кучево-дожд., средняя 
[Cb calv|Ac und]
+8.8 +7.5 92 +10  1019.7  0.2  724  281           
21 22.09.16 190 (Ю) 20000 м    10/3 1000 м кучево-дожд., средняя 
[Cb calv|Ac und]
+9.3 +8.4 94 +10  1018.9  -0.6  724  281           
00 23.09.16 060 (СВ) 20000 м    10/3 1000 м кучево-дожд., средняя 
[Cb calv|Ac und]
+9.4 +8.2 92 +10  1018  -0.8  723  280           
03 23.09.16 080 (В) 2000 м  слаб. ливневой дождь  10/8 300 м кучево-дожд., средняя 
[Cb cap|Ac und]
+9.5 +8.7 95 +9  1017.2  -0.7  723  280  +8.6    0.5    влажная 
06 23.09.16 080 (В) 6000 м  дымка{ливн. осадки}  10/8 200 м средняя 
[St|Ac und]
+9.6 +8.4 92 +8  1016.5  -0.7  722  280           
09 23.09.16 080 (В) 7-10{10}  10 км    10/8 300 м средняя 
[St|Ac und]
+10.5 +8.3 86 +9  1014.8  -1.3  721  278           
12 23.09.16 080 (В) 6{11}  10 км  слаб. дождь  10/10 300 м 
[Ns]
+11 +9.6 91 +11  1013.6  -1.1  720  277           
15 23.09.16 070 (В) 1500 м  слаб. ливневой дождь  10/8 100 м кучево-дожд., средняя 
[Cb cap|Ac und]
+10.6 +9.9 95 +12  1014.6  0.9  721  278    +12.3     
18 23.09.16 030 (СВ) 0900 м  слаб. ливневой дождь{туман}  ?/?  
+10.8 +10.2 96 +12  1015.4  0.8  722  278           
21 23.09.16 360 (С) 3000 м  слаб. ливневой дождь{туман}  10/8 100 м кучево-дожд., средняя 
[Cb cap|Ac und]
+9.7 +9.1 96 +10  1016  0.3  722  279           
00 24.09.16 320 (СЗ) 3500 м  слаб. ливневой дождь{туман}  10/8 100 м кучево-дожд., средняя 
[Cb cap|Ac und]
+8.5 +7.9 96 +7  1017.2  0.9  723  281           
03 24.09.16 330 (СЗ) 5{10}  4000 м  слаб. ливневой дождь  10/8 100 м кучево-дожд., средняя 
[Cb cap|Ac und]
+7.5 +6.9 96 +6  1018.8  1.3  724  283  +7.5    15    влажная 
06 24.09.16 320 (СЗ) 4000 м  дымка{ливн. осадки}  10/10 100 м 
[St]
+7.5 +6.9 96 +6  1020.1  1.2  725  283  +7.3         
09 24.09.16 290 (З) 4000 м  слаб. морось  10/10 200 м 
[St]
+8.2 +7.5 95 +7  1020.7  0.7  725  282           
12 24.09.16 280 (З) 20000 м  {морось}  10/8 300 м средняя 
[St|Ac und]
+9.5 +7.5 87 +8  1020.3  0.1  725  281           
15 24.09.16 260 (З) 20000 м    3/1 300 м средняя, верхняя 
[St|Ac trans|Ci fib]
+8.2 +6.6 90 +7  1020.7  0.1  725  282    +9.9  0.5     
18 24.09.16 270 (З) 20000 м    1/0 средняя 
[Ac trans]
+7.7 +6.3 91 +6  1020.9  0.1  725  283           
21 24.09.16 240 (ЮЗ) 20000 м    3/3 600 м 
[Sc]
+7.8 +6.4 91 +6  1019.8  -1  724  283           
00 25.09.16 270 (З) 20000 м    4/0 средняя 
[Ac trans]
+6.9 +5.3 90 +6  1019.2  -0.8  724  284           
03 25.09.16 250 (З) 20000 м    8/3 1000 м средняя 
[Sc|Ac As]
+7.6 +5.8 88 +6  1018.4  -0.6  723  283  +6.6        влажная 
06 25.09.16 250 (З) 7-10{11}  20000 м    5/5 300 м 
[Sc]
+10.7 +6.8 77 +9  1017.8  723  279           
09 25.09.16 270 (З) 8-12{12}  20000 м    8/5 600 м средняя 
[Sc|Ac trans]
+12.5 +5.3 61 +11  1016.8  -0.7  723  278           
12 25.09.16 250 (З) 9-14{14}  20000 м    8/4 1000 м средняя 
[Sc|Ac trans]
+14.6 +3 46 +13  1015.4  -0.9  722  276           
15 25.09.16 250 (З) 5{14}  20000 м    5/0 средняя 
[Ac trans]
+9.9 +4.5 69 +9  1016.5  0.2  722  280    +14.7       
18 25.09.16 250 (З) 8-12{12}  20000 м    6/0 средняя 
[Ac trans]
+10.2 +5.1 71 +8  1016.4  0.1  722  280           
21 25.09.16 240 (ЮЗ) 6{13}  20000 м    3/0 средняя 
[Ac trans]
+9.2 +5 75 +7  1016  -0.5  722  280           
00 26.09.16 240 (ЮЗ) 7-10{13}  20000 м    5/0 средняя 
[Ac trans]
+8.8 +4.1 72 +7  1015.6  -0.4  721  281           
03 26.09.16 240 (ЮЗ) 7-10{11}  20000 м    4/0 средняя 
[Ac trans]
+8.8 +3.7 70 +7  1015.1  -0.6  721  281  +8.5        влажная 
06 26.09.16 250 (З) 9-13{15}  20000 м    4/0 средняя 
[Ac trans]
+14.2 +4.7 53 +13  1013.9  0.1  721  275           
09 26.09.16 270 (З) 9-13{15}  20000 м    8/6 1000 м средняя 
[Sc|Ac trans]
+16.9 +4.7 44 +16  1013  -0.3  721  273           
12 26.09.16 290 (З) 6-12{17}  20000 м    6/4 1000 м средняя 
[Sc|Ac trans]
+16 +7.6 57 +16  1013.7  0.5  721  273           
15 26.09.16 280 (З) 7{12}  20000 м    10/6 600 м кучево-дожд., средняя 
[Cb calv|Ac und]
+11.2 +8.1 81 +10  1015.9  1.2  722  278    +18       
18 26.09.16 270 (З) 9-12{13}  20000 м  слаб. ливневой дождь  10/8 300 м кучево-дожд., средняя 
[Cb cap|Ac und]
+9.9 +8.2 89 +8  1017.5  1.3  723  280           
21 26.09.16 270 (З) 7-11{15}  20000 м  слаб. ливневой дождь  10/6 600 м кучево-дожд., средняя 
[Cb cap|Ac und]
+8.9 +7.3 90 +7  1017.5  -0.2  723  281           
00 27.09.16 260 (З) 6-10{11}  20000 м  {ливн. осадки}  10/8 600 м кучево-дожд., средняя 
[Cb cap|Ac und]
+9.4 +7.9 90 +8  1017.1  -0.3  723  280           
03 27.09.16 300 (СЗ) 3{10}  4000 м  слаб. ливневой дождь  10/8 200 м кучево-дожд., средняя 
[Cb cap|Ac und]
+8.5 +7.6 94 +8  1017.9  0.6  723  281  +8.4      влажная 
06 27.09.16 280 (З) 20000 м  слаб. ливневой дождь  10/8 300 м кучево-дожд., средняя 
[Cb cap|Ac und]
+8.6 +7.3 92 +8  1019.1  1.1  724  281  +8.4         
09 27.09.16 280 (З) 20000 м  {ливн. осадки}  9/5 600 м средняя 
[Sc diur, vesp|Ac trans]
+11.4 +5.5 67 +11  1018.8  0.2  724  279           
12 27.09.16 290 (З) 5{10}  20000 м    8/3 600 м средняя 
[Sc|Ac trans]
+12.7 +5.1 60 +12  1018.6  0.2  724  278           
15 27.09.16 270 (З) 5{11}  20000 м    9/4 600 м средняя 
[Sc|Ac trans]
+10.5 +6 74 +9  1019.9  0.8  725  280    +13.6     
18 27.09.16 250 (З) 20000 м    4/0 средняя 
[Ac trans]
+8.1 +6.8 91 +7  1021  0.6  725  283           
21 27.09.16 250 (З) 20000 м    6/3 600 м средняя 
[Sc|Ac trans]
+9 +7.3 89 +8  1020  -0.8  725  281           
00 28.09.16 250 (З) 20000 м    10/3 600 м средняя 
[Sc|Ac und]
+9.3 +7.4 88 +8  1019  -0.8  724  281           
03 28.09.16 260 (З) 10 км  слаб. ливневой дождь  10/8 300 м кучево-дожд., средняя 
[Cb cap|Ac und]
+9 +7.9 93 +8  1018.8  -0.3  724  281  +7.9    0.8    влажная 
06 28.09.16 280 (З) 4000 м  слаб. ливневой дождь  10/6 300 м кучево-дожд., средняя 
[Cb cap|Ac und]
+9.2 +8 92 +8  1019.7  0.9  725  281           
09 28.09.16 250 (З) 6{10}  20000 м  {ливн. осадки}  10/6 300 м кучево-дожд., средняя 
[Cb cap|Ac und]
+10.7 +7 78 +9  1019.3  0.1  724  280           
12 28.09.16 280 (З) 6{10}  10 км  слаб. ливневой дождь  10/6 600 м кучево-дожд., средняя 
[Cb cap|Ac und]
+10.5 +7.2 80 +9  1019.2  -0.2  724  280           
15 28.09.16 270 (З) 20000 м  {ливн. осадки}  8/5 600 м кучево-дожд., средняя 
[Cb cap|Ac As]
+8.2 +6.6 90 +7  1020.5  0.8  725  282    +12.8     
18 28.09.16 290 (З) 20000 м  {ливн. осадки}  10/6 1000 м средняя 
[Sc diur, vesp|Ac und]
+8.1 +6.7 91 +7  1022  1.4  726  283           
21 28.09.16 280 (З) 20000 м    4/4 600 м 
[Sc]
+7.3 +5.7 90 +7  1022.7  0.5  726  284           
00 29.09.16 270 (З) 20000 м    10/4 1000 м средняя 
[Sc|Ac und]
+7.5 +6.1 91 +6  1022.3  -0.3  726  284           
03 29.09.16 270 (З) 20000 м    10/6 300 м средняя 
[St|Ac und]
+7.5 +5.8 89 +5  1022.2  -0.2  726  284  +6.9    0.8    влажная 
06 29.09.16 280 (З) 5{11}  20000 м    9/9 300 м 
[St]
+9 +6.5 84 +8  1022.1  0.2  726  282           
09 29.09.16 290 (З) 6{11}  20000 м    9/5 600 м средняя 
[Sc|Ac trans]
+11.1 +3.6 60 +10  1020.9  -0.8  726  280           
12 29.09.16 280 (З) 7-11{13}  20000 м    9/5 600 м средняя 
[Sc|Ac trans]
+11.8 +4.3 60 +10  1019.7  -1.1  725  279           
15 29.09.16 260 (З) 6-10{12}  20000 м  слаб. ливневой дождь  10/5 600 м кучево-дожд., средняя 
[Cb cap|Ac und]
+9.2 +6.2 81 +7  1020.2  0.1  725  281    +12.9  0.0     
18 29.09.16 230 (ЮЗ) 4{10}  20000 м    10/5 600 м кучево-дожд., средняя 
[Cb calv|Ac und]
+8.5 +6.2 85 +7  1019.5  -0.8  724  282           
21 29.09.16 240 (ЮЗ) 20000 м  слаб. ливневой дождь  10/4 600 м кучево-дожд., средняя 
[Cb calv|Ac und]
+8.9 +7.3 90 +7  1018.1  -1.2  723  281           
00 30.09.16 150 (ЮВ) 4000 м  ливневой дождь  10/6 600 м кучево-дожд., средняя 
[Cb calv|Ac und]
+8.6 +7.8 95 +9  1016.9  -1.2  722  281           
03 30.09.16 150 (ЮВ) 20000 м  в посл. час ливневой дождь{туман}  10/5 600 м кучево-дожд., средняя 
[Cb calv|Ac und]
+8.6 +7.9 95 +8  1016.5  -1.2  722  281  +8.4      влажная 
06 30.09.16 120 (ЮВ) 20000 м  {ливн. осадки}  9/4 600 м кучево-дожд., средняя 
[Cb calv|Ac trans]
+10.7 +8.8 88 +11  1017.9  1.8  723  279  +8.2         
09 30.09.16 040 (СВ) 20000 м    9/5 1000 м кучево-дожд., средняя 
[Cb calv|Ac trans]
+14.7 +8.4 66 +16  1018.6  1.3  724  275           
12 30.09.16 340 (С) 20000 м    9/6 600 м кучево-дожд., средняя 
[Cb calv|Ac trans]
+13 +9.9 81 +15  1020.9  1.9  726  277           
15 30.09.16 330 (СЗ) 20000 м    9/6 600 м средняя 
[Sc diur, vesp|Ac trans]
+11.7 +10.1 90 +15  1022.9  1.7  727  279    +15.3       
18 30.09.16 190 (Ю) 10 км    10/8 600 м средняя 
[Sc|Ac und]
+10.8 +9.8 94 +13  1024.6  1.4  728  280           
21 30.09.16 170 (Ю) 3000 м  дымка  4/0 средняя 
[Ac trans]
+8.7 +8 95 +10  1025  0.1  728  283           
00 01.10.16 230 (ЮЗ) 3000 м  дымка  ясно 
+7.7 +7.1 96 +8  1025.6  0.4  728  284           
03 01.10.16 230 (ЮЗ) 4000 м  дымка  4/0 средняя 
[Ac trans]
+8.3 +7.6 95 +9  1025.8  0.3  729  284  +5.6        влажная 
06 01.10.16 160 (Ю) 10 км    3/0 средняя 
[Ac trans]
+13 +9.7 80 +14  1025.7  0.8  729  279           
09 01.10.16 140 (ЮВ) 20000 м    4/4 600 м 
[Sc]
+17.7 +8.2 54 +19  1024.4  -0.4  729  274           
12 01.10.16 110 (В) 20000 м    1/0 средняя 
[Ac trans]
+19.1 +7.8 48 +20  1023  -1  728  273           
15 01.10.16 100 (В) 20000 м    ясно 
+14.4 +7.9 65 +15  1023.3  -0.5  728  277    +19.6       
18 01.10.16 090 (В) 20000 м    ясно 
+11 +6.6 74 +10  1023.9  0.1  728  281           
21 01.10.16 080 (В) 20000 м    ясно 
+9.5 +5.7 77 +10  1023.7  -0.5  727  282           
00 02.10.16 100 (В) 20000 м    ясно 
+9.4 +6.1 80 +8  1023.1  -0.6  727  282           
03 02.10.16 110 (В) 20000 м    3/0 верхняя 
[Ci fib]
+8.6 +6.4 86 +7  1023  -0.2  727  283  +7.9        сухая 
06 02.10.16 100 (В) 20000 м    3/0 верхняя 
[Ci fib]
+13 +9.3 78 +13  1021.7  -0.3  726  278           
09 02.10.16 100 (В) 8-11{12}  20000 м    1/1 300 м 
[St]
+16.9 +9.6 62 +17  1020.6  -0.4  726  274           
12 02.10.16 110 (В) 7-10{12}  20000 м    3/0 средняя 
[Ac trans]
+19.6 +10.5 56 +22  1019.8  -0.3  726  271           
15 02.10.16 100 (В) 6{12}  20000 м    1/0 средняя 
[Ac trans]
+18 +10.1 60 +20  1019.6  -0.4  726  272    +20.2       
Время (UTC), дата Ветер
(°,м/с) 
Видим.   Явления Облачность Т
(°С)
Тd
(°С)
f(%) Тe
(°С)
Pmin
(гПа)
dP
(гПа)
Po
(мм)
O2
(г/м3)
Тmin Tmax R s Состояние
почвы